[[{"header":{"parameterUnit":"m.s-1","parameterCategory":1,"la1":30.2991,"la2":30.254,"lo1":-89.0895,"lo2":-89.0444,"dy":0.0017,"dx":0.0017,"nx":28,"ny":28,"refTime":"2024-08-28T09:00:00:Z","depth":0,"parameterNumber":2,"parameterNumberName":"U-component_of_WINDS"},"data":[0,0,0,0,0,0,0,0,0,0,0,0,0,0,0,0,0,0,0,0,0,0,0,0,0,0,0,0,0,0,0,0,0,0,0,0,0,0,0,0,0,0,0,0,0,0,0,0,0,0,0,0,0,0,0,0,0,0,-1.7026,-1.7026,0,-1.7023,-1.7023,-1.7023,-1.7005,-1.7004,-1.7004,-1.7004,-1.7,-1.7001,-1.7001,0,0,0,0,0,0,0,0,0,0,0,0,0,-1.7017,-1.7017,-1.7026,-1.7026,-1.7026,-1.7023,-1.7023,-1.7023,-1.7005,-1.7004,-1.7004,-1.7003,-1.7,-1.7001,-1.7001,0,0,0,0,0,0,0,0,0,0,0,0,0,-1.7018,-1.7017,-1.7026,-1.7016,-1.7016,-1.7023,-1.7023,-1.7023,-1.7005,-1.7004,-1.7004,-1.7003,-1.7,-1.7001,-1.7001,-1.7017,0,0,-1.7003,-1.7003,0,0,0,0,0,0,0,0,-1.7018,-1.7019,-1.7018,-1.7017,-1.7016,-1.7014,-1.7019,-1.7021,-1.7005,-1.7009,-1.7004,-1.7003,-1.7005,-1.7005,-1.7006,-1.7017,-1.7017,-1.7003,-1.7003,-1.7003,-1.7003,0,0,0,0,0,0,0,-1.7018,-1.7019,-1.7025,-1.7018,-1.7017,-1.7013,-1.7012,-1.7019,-1.7011,-1.7009,-1.7007,-1.7007,-1.7005,-1.7006,-1.7006,-1.7017,-1.7003,-1.7003,-1.7003,-1.7004,-1.7044,-1.7045,0,0,0,0,0,0,-1.7019,-1.7019,-1.7025,-1.7025,-1.7016,-1.7014,-1.7013,-1.7015,-1.7011,-1.7009,-1.7008,-1.7006,-1.7005,-1.7005,-1.7006,-1.7026,-1.7003,-1.7004,-1.7004,-1.7043,-1.7044,-1.7045,0,0,0,0,0,0,-1.7019,-1.702,-1.7025,-1.7021,-1.7022,-1.7014,-1.7017,-1.7015,-1.7016,-1.701,-1.7009,-1.701,-1.7005,-1.7005,-1.7015,-1.7026,-1.7004,-1.7004,-1.7042,-1.7044,-1.7045,-1.7066,0,0,0,0,0,0,-1.7019,-1.702,-1.7026,-1.7022,-1.7022,-1.7034,-1.7018,-1.7016,-1.7017,-1.7016,-1.7012,-1.7011,-1.7004,-1.7015,-1.7016,-1.7026,-1.7005,-1.7041,-1.7043,-1.7044,-1.7064,-1.7067,-1.707,0,0,0,0,0,-1.7019,-1.7031,-1.7026,-1.7027,-1.7029,-1.7034,-1.7035,-1.7027,-1.7018,-1.7024,-1.7021,-1.7011,-1.7025,-1.7016,-1.7017,-1.7027,-1.7041,-1.7042,-1.7044,-1.7063,-1.7067,-1.707,0,0,0,0,0,0,-1.7035,-1.703,-1.7024,-1.7036,-1.7036,-1.7031,-1.7038,-1.7031,-1.7033,-1.7031,-1.7022,-1.7021,-1.7033,-1.7031,-1.7022,-1.7044,-1.7031,-1.7033,-1.7045,-1.7049,-1.7052,-1.7052,-1.7005,0,0,0,0,0,-1.704,-1.7045,-1.7041,-1.7051,-1.7052,-1.7045,-1.7047,-1.7042,-1.7041,-1.7041,-1.7038,-1.7038,-1.7043,-1.7046,-1.7049,-1.7064,-1.7064,-1.7072,-1.7075,-1.7078,-1.708,-1.709,-1.7094,-1.7051,-1.7051,-1.7051,0,0,-1.7051,-1.7048,-1.7052,-1.7054,-1.7054,-1.706,-1.7045,-1.7051,-1.7056,-1.7042,-1.7052,-1.705,-1.705,-1.7063,-1.7068,-1.7061,-1.7092,-1.708,-1.7082,-1.7083,-1.7092,-1.7096,-1.71,-1.7052,-1.7052,-1.7052,0,0,-1.7072,-1.7071,-1.708,-1.7081,-1.708,-1.7077,-1.7079,-1.7076,-1.7075,-1.7085,-1.7075,-1.7081,-1.7088,-1.7089,-1.709,-1.7116,-1.7108,-1.7118,-1.7134,-1.7144,-1.7147,-1.715,-1.7161,-1.7165,-1.712,-1.712,-1.712,0,-1.7085,-1.7093,-1.7086,-1.7094,-1.7096,-1.7085,-1.7095,-1.7096,-1.7096,-1.7099,-1.7091,-1.7102,-1.7101,-1.7115,-1.7122,-1.7123,-1.7127,-1.7118,-1.7148,-1.715,-1.7153,-1.7163,-1.7167,-1.7121,-1.7121,-1.7121,-1.7121,0,-1.711,-1.7116,-1.7124,-1.7126,-1.7129,-1.7138,-1.7133,-1.7137,-1.7132,-1.713,-1.7141,-1.714,-1.7144,-1.7147,-1.7142,-1.7162,-1.7158,-1.7149,-1.7136,-1.7159,-1.7168,-1.7171,-1.7123,-1.7122,-1.7122,-1.7122,0,0,-1.714,-1.714,-1.7143,-1.7145,-1.7145,-1.715,-1.716,-1.7165,-1.7169,-1.7171,-1.7179,-1.7188,-1.7181,-1.7182,-1.7177,-1.7186,-1.7209,-1.7177,-1.7177,-1.7183,-1.7233,-1.7239,-1.7243,-1.7204,-1.7204,-1.7205,-1.7233,0,-1.7161,-1.7177,-1.7172,-1.7189,-1.7195,-1.7186,-1.7195,-1.7197,-1.7195,-1.7201,-1.72,-1.7206,-1.7196,-1.7197,-1.7206,-1.7204,-1.7218,-1.7202,-1.7212,-1.7213,-1.7213,-1.7248,-1.7254,-1.7281,-1.7236,-1.7237,-1.7237,0,-1.7188,-1.7192,-1.721,-1.7211,-1.7214,-1.7222,-1.7227,-1.7233,-1.7236,-1.7234,-1.7238,-1.7232,-1.7243,-1.723,-1.7246,-1.7235,-1.7239,-1.7239,-1.724,-1.7241,-1.7226,-1.725,-1.7289,-1.7293,-1.7243,-1.7242,-1.7242,0,-1.721,-1.722,-1.7232,-1.7234,-1.7235,-1.7242,-1.7243,-1.7245,-1.7249,-1.7254,-1.7257,-1.7263,-1.7267,-1.7272,-1.7269,-1.7259,-1.7286,-1.7272,-1.7286,-1.7286,-1.7291,-1.729,-1.7331,-1.7293,-1.7293,-1.7293,-1.7293,0,-1.7234,-1.7245,-1.7242,-1.7249,-1.7262,-1.7257,-1.7271,-1.7271,-1.7273,-1.7282,-1.7274,-1.7282,-1.7277,-1.7285,-1.7283,-1.7297,-1.7299,-1.7299,-1.7298,-1.7299,-1.7299,-1.7302,-1.73,-1.7294,-1.7294,-1.7294,-1.7294,0,-1.726,-1.7257,-1.7271,-1.7272,-1.7273,-1.7283,-1.7284,-1.7292,-1.7291,-1.7302,-1.7304,-1.7303,-1.7313,-1.731,-1.732,-1.7319,-1.7337,-1.7334,-1.7336,-1.7335,-1.735,-1.7349,-1.7393,-1.7399,-1.7357,-1.7358,-1.7358,0,-1.7275,-1.7284,-1.7287,-1.7293,-1.7295,-1.7303,-1.7308,-1.7304,-1.731,-1.7315,-1.7323,-1.7332,-1.7339,-1.7355,-1.7355,-1.7363,-1.736,-1.7376,-1.7361,-1.7364,-1.7362,-1.7361,-1.7363,-1.7378,-1.7379,-1.7379,-1.7379,0,-1.7304,-1.7304,-1.731,-1.7318,-1.7324,-1.733,-1.7335,-1.734,-1.7337,-1.7344,-1.7354,-1.7359,-1.7371,-1.738,-1.7389,-1.7391,-1.7385,-1.7384,-1.7388,-1.7389,-1.7391,-1.7391,-1.7344,-1.7383,-1.7382,-1.7382,-1.7382,-1.7382,-1.7326,-1.7334,-1.7338,-1.7347,-1.7351,-1.7357,-1.7365,-1.7366,-1.7374,-1.7383,-1.7381,-1.7393,-1.7398,-1.7409,-1.7412,-1.7422,-1.7416,-1.7421,-1.7423,-1.7424,-1.7427,-1.739,-1.7424,-1.7423,-1.7423,-1.7423,-1.7423,0,-1.7355,-1.7358,-1.7366,-1.7374,-1.7382,-1.7377,-1.7383,-1.739,-1.74,-1.7406,-1.7414,-1.7426,-1.7437,-1.7439,-1.7449,-1.7457,-1.7455,-1.7459,-1.7459,-1.746,-1.743,-1.7427,-1.7461,-1.7461,-1.7461,-1.7461,-1.7461,-1.7461,-1.7371,-1.7385,-1.7386,-1.7402,-1.7405,-1.7417,-1.7421,-1.7427,-1.7432,-1.7447,-1.7455,-1.7457,-1.7462,-1.7473,-1.7482,-1.7483,-1.7487,-1.7493,-1.7493,-1.7465,-1.7462,-1.7458,-1.7454,-1.7494,-1.7494,-1.7522,-1.7522,-1.7522]},{"header":{"parameterUnit":"m.s-1","parameterCategory":1,"la1":30.2991,"la2":30.254,"lo1":-89.0895,"lo2":-89.0444,"dy":0.0017,"dx":0.0017,"nx":28,"ny":28,"refTime":"2024-08-28T09:00:00:Z","depth":0,"parameterNumber":3,"parameterNumberName":"V-component_of_WINDS"},"data":[0,0,0,0,0,0,0,0,0,0,0,0,0,0,0,0,0,0,0,0,0,0,0,0,0,0,0,0,0,0,0,0,0,0,0,0,0,0,0,0,0,0,0,0,0,0,0,0,0,0,0,0,0,0,0,0,0,0,2.2402,2.2402,0,2.2378,2.2378,2.2378,2.2429,2.243,2.2432,2.2433,2.2404,2.2402,2.24,0,0,0,0,0,0,0,0,0,0,0,0,0,2.2488,2.2486,2.2402,2.2402,2.2402,2.2378,2.2378,2.2377,2.2428,2.243,2.2432,2.2434,2.2405,2.2402,2.2399,0,0,0,0,0,0,0,0,0,0,0,0,0,2.2456,2.2486,2.2402,2.2424,2.2426,2.2378,2.2378,2.2377,2.2428,2.243,2.2433,2.2435,2.2406,2.2402,2.2399,2.2327,0,0,2.2388,2.2387,0,0,0,0,0,0,0,0,2.2458,2.2453,2.2421,2.2423,2.2425,2.2409,2.2397,2.236,2.2427,2.2427,2.2434,2.2436,2.2403,2.24,2.239,2.2326,2.2325,2.2388,2.2386,2.2384,2.2383,0,0,0,0,0,0,0,2.246,2.2454,2.2393,2.2421,2.2423,2.2434,2.2432,2.2391,2.2401,2.2427,2.2431,2.2428,2.2405,2.2393,2.239,2.2324,2.2388,2.2385,2.2383,2.2381,2.2199,2.2196,0,0,0,0,0,0,2.246,2.2456,2.2393,2.2392,2.2448,2.243,2.2428,2.2411,2.2402,2.2403,2.2425,2.243,2.2398,2.2394,2.2389,2.2303,2.2384,2.2381,2.2379,2.2201,2.2198,2.2195,0,0,0,0,0,0,2.2462,2.2454,2.2394,2.2425,2.2418,2.2426,2.2407,2.241,2.2398,2.2401,2.2402,2.2412,2.24,2.2394,2.2342,2.2303,2.2379,2.2376,2.2205,2.22,2.2196,2.2131,0,0,0,0,0,0,2.2464,2.2454,2.2428,2.2424,2.2416,2.2349,2.2404,2.2407,2.2393,2.2398,2.2389,2.2389,2.2401,2.2347,2.2339,2.2299,2.2374,2.2208,2.2203,2.2198,2.2137,2.2126,2.2116,0,0,0,0,0,2.2467,2.241,2.2426,2.2419,2.2384,2.2347,2.2342,2.2359,2.2389,2.2362,2.2364,2.239,2.2309,2.2341,2.2332,2.2291,2.2211,2.2204,2.2198,2.2142,2.2128,2.2116,0,0,0,0,0,0,2.2407,2.241,2.2428,2.2369,2.2357,2.2355,2.2322,2.2343,2.2322,2.2328,2.2348,2.2345,2.2289,2.2286,2.2322,2.2221,2.2265,2.2256,2.2225,2.2212,2.2201,2.2202,2.2371,0,0,0,0,0,2.2388,2.2359,2.2362,2.2309,2.2303,2.2313,2.2298,2.2311,2.23,2.2295,2.2293,2.2279,2.2251,2.2231,2.2206,2.2138,2.2135,2.2105,2.2094,2.2085,2.2077,2.2039,2.2025,2.2175,2.2175,2.2175,0,0,2.2346,2.2344,2.2324,2.2297,2.229,2.2258,2.2309,2.2273,2.2249,2.2289,2.224,2.2238,2.2224,2.2164,2.2137,2.2159,2.2036,2.2077,2.207,2.2067,2.2032,2.2017,2.2005,2.217,2.2171,2.2172,0,0,2.2254,2.225,2.2205,2.2197,2.2186,2.2194,2.2183,2.2178,2.2178,2.213,2.2159,2.213,2.2081,2.207,2.2058,2.1961,2.1984,2.1952,2.1896,2.1859,2.1847,2.1836,2.18,2.1787,2.1945,2.1945,2.1945,0,2.2202,2.2157,2.2178,2.214,2.2127,2.2164,2.2117,2.2108,2.2089,2.2078,2.2103,2.2042,2.2036,2.1972,2.1949,2.1939,2.1925,2.1952,2.1847,2.1837,2.1828,2.1793,2.178,2.1941,2.1941,2.1942,2.1942,0,2.2094,2.2062,2.2026,2.2008,2.1991,2.1949,2.1962,2.1942,2.1958,2.1962,2.1911,2.1905,2.1878,2.1865,2.1879,2.1803,2.1816,2.1844,2.1888,2.1809,2.1777,2.1764,2.1935,2.1937,2.1938,2.1939,0,0,2.1961,2.1956,2.1943,2.1934,2.1925,2.19,2.1859,2.1835,2.1816,2.1801,2.1766,2.1724,2.175,2.1736,2.175,2.1718,2.1639,2.1749,2.1749,2.1727,2.1553,2.153,2.1515,2.1655,2.1653,2.1651,2.1553,0,2.1868,2.1799,2.1818,2.1748,2.1718,2.1753,2.1717,2.1706,2.1709,2.1683,2.1686,2.1655,2.1693,2.1684,2.1654,2.1655,2.1604,2.1663,2.162,2.1619,2.1621,2.1499,2.1475,2.1383,2.1541,2.1539,2.1538,0,2.175,2.1732,2.166,2.1655,2.1643,2.1611,2.1589,2.1564,2.1553,2.1557,2.1542,2.1562,2.152,2.1566,2.1508,2.1547,2.1531,2.1529,2.1526,2.1521,2.1572,2.1488,2.1354,2.134,2.1518,2.152,2.1521,0,2.1658,2.1616,2.1567,2.1559,2.1553,2.153,2.1526,2.1517,2.1501,2.1482,2.1471,2.1446,2.1432,2.1412,2.1425,2.1458,2.1363,2.1411,2.1364,2.1363,2.134,2.1341,2.12,2.1334,2.1334,2.1334,2.1334,0,2.1551,2.1504,2.1526,2.1495,2.1444,2.1465,2.1414,2.1414,2.1406,2.1375,2.1404,2.1374,2.1393,2.1365,2.1374,2.1323,2.1317,2.1318,2.132,2.1314,2.1313,2.1302,2.1308,2.1331,2.1331,2.1332,2.1333,0,2.1438,2.1451,2.14,2.1399,2.1398,2.136,2.1358,2.1329,2.1335,2.1296,2.1288,2.1296,2.1264,2.1275,2.124,2.1246,2.118,2.1192,2.1184,2.1186,2.1138,2.1141,2.0983,2.0962,2.1111,2.1109,2.1108,0,2.1368,2.1333,2.1329,2.1311,2.1306,2.1277,2.126,2.128,2.1261,2.1246,2.1218,2.1189,2.1166,2.1113,2.1114,2.1088,2.1098,2.1044,2.1094,2.1088,2.1094,2.1095,2.1091,2.1033,2.1031,2.103,2.1029,0,2.1241,2.1249,2.1225,2.1203,2.1184,2.1167,2.1153,2.1136,2.1155,2.1132,2.11,2.1083,2.1048,2.1017,2.0993,2.0988,2.101,2.1014,2.1001,2.0993,2.0989,2.0988,2.1155,2.1017,2.1018,2.1019,2.1019,2.102,2.1146,2.1116,2.1109,2.1081,2.1073,2.1059,2.1032,2.1035,2.1009,2.0982,2.0995,2.0958,2.0947,2.0917,2.0908,2.0878,2.0899,2.0881,2.0876,2.087,2.0863,2.0996,2.0874,2.0874,2.0875,2.0875,2.0875,0,2.1018,2.1016,2.099,2.097,2.0948,2.0974,2.0959,2.0938,2.0905,2.0894,2.0872,2.0834,2.0805,2.0805,2.0778,2.0753,2.0763,2.0745,2.0746,2.0744,2.0847,2.086,2.0738,2.0738,2.0738,2.0738,2.0738,2.0738,2.0949,2.0901,2.0908,2.0855,2.0852,2.0816,2.0805,2.0792,2.0783,2.0741,2.0717,2.0718,2.0711,2.0683,2.0657,2.0658,2.0645,2.0623,2.0627,2.0723,2.0737,2.075,2.0762,2.0621,2.0621,2.0526,2.0525,2.0525]}]]